Miscellaneous Local Product
Issued by NWS Hastings, NE

Home | Current Version | Previous Version | Text Only | Print | Product List | Glossary Off
Versions: 1 2 3 4 5 6 7 8 9 10 11 12 13 14 15 16 17 18 19 20 21 22 23 24 25 26 27 28 29 30 31 32 33 34 35 36 37 38 39 40 41 42 43 44 45 46 47 48 49 50

000
AXUS43 KGID 231702
MISGRI

GID CWA HOURLY WEATHER ROUNDUP
NATIONAL WEATHER SERVICE HASTINGS NE
1200 PM CDT SAT JUL 23 2016

NOTE: "FAIR" INDICATES FEW OR NO CLOUDS BELOW 12,000 FEET WITH NO
SIGNIFICANT WEATHER AND/OR OBSTRUCTIONS TO VISIBILITY.

...SOUTH CENTRAL NEBRASKA...

CITY           SKY/WX    TMP DP  RH WIND       PRES   REMARKS
GRAND ISLAND   MOSUNNY   87  69  54 SW15G21   29.86S HX  91
HASTINGS       MOSUNNY   83  68  60 S14       29.87R
KEARNEY        CLOUDY    84  70  61 SW9       29.88F
ORD            SUNNY     84  69  60 SW8       29.84F
YORK           CLOUDY    82  70  65 SW9G16    29.84S
AURORA         CLOUDY    84  71  65 SW7       29.85R
LEXINGTON      SUNNY     83  70  63 SW8       29.88F
HOLDREGE       MOSUNNY   83  71  67 CALM      29.88F
HEBRON         MOSUNNY   84  69  60 S7        29.86F

...NEBRASKA PANHANDLE...

CITY           SKY/WX    TMP DP  RH WIND       PRES   REMARKS
CHADRON        SUNNY     86  54  33 NW17      29.93R
ALLIANCE       SUNNY     87  57  35 W10       29.96S
SCOTTSBLUFF    SUNNY     89  48  24 NW16      30.00R
SIDNEY         CLOUDY    94  46  19 NW18G24   30.02F HX  90

...WESTERN AND NORTH CENTRAL NEBRASKA...

CITY           SKY/WX    TMP DP  RH WIND       PRES   REMARKS
VALENTINE      SUNNY     87  64  46 SW12      29.82F
AINSWORTH      SUNNY     89  66  46 SW18G26   29.82F HX  92
ONEILL         SUNNY     88  67  50 S13       29.82F HX  91
BROKEN BOW     SUNNY     84  69  60 SW18G26   29.88F
IMPERIAL       CLOUDY    81  66  60 SW6       29.94F
NORTH PLATTE   CLOUDY    83  69  62 SW7       29.91R
MCCOOK         CLOUDY    84  68  58 SW8       29.89F

...EASTERN NEBRASKA...

CITY           SKY/WX    TMP DP  RH WIND       PRES   REMARKS
NORFOLK        SUNNY     87  73  62 S8        29.82S HX  94
SO SIOUX CITY  MOSUNNY   87  76  69 SE9       29.80S HX  97
TEKAMAH        PTSUNNY   82  74  76 SE10      29.81S
COLUMBUS       CLOUDY    88  70  55 SW12      29.83F HX  92
ALBION         SUNNY     86  71  60 S10       29.84S HX  91
OMAHA EPPLEY   CLOUDY    83  73  72 SE10      29.83R
OFFUTT AFB     CLOUDY    84  73  69 S6        29.84R HX  91
MILLARD        CLOUDY    84  73  69 SE8       29.83S HX  90
LINCOLN        CLOUDY    86  71  60 S13       29.83S HX  91
NEBRASKA CITY  CLOUDY    82  73  75 S13       29.84F
BEATRICE       CLOUDY    84  70  61 S10       29.86R
FALLS CITY     CLOUDY    86  74  67 S12       29.87R HX  94

...NORTHERN KANSAS...

CITY           SKY/WX    TMP DP  RH WIND       PRES   REMARKS
GOODLAND       SUNNY     89  60  37 NW7       29.96S
HILL CITY      CLOUDY    91  63  39 S14G22    29.86F HX  92
NORTON         SUNNY     91  57  31 SW14      29.87R HX  90
SMITH CENTER   SUNNY     93  63  36 S15G21    29.86R HX  94
BELOIT         SUNNY     90  70  51 S13G20    29.83F HX  95
HAYS           CLOUDY    91  63  38 S17       29.87S HX  92
RUSSELL        CLOUDY    92  65  40 S17G25    29.86F HX  94
CONCORDIA      CLOUDY    85  70  60 S13       29.86S
SALINA         PTSUNNY   92  68  45 S16       29.87F HX  96
TOPEKA         PTSUNNY   91  70  49 S14       29.90F HX  96



USA.gov is the U.S. government's official web portal to all federal, state and local government web resources and services.